星链-36607(STARLINK-36607)

导读 | 豆包AI

STARLINK-36607是美国SpaceX星链计划的卫星,于2026年1月30日发射升空,属于低轨卫星星座组网卫星,承担全球互联网覆盖服务任务。星链项目通过批量部署低轨卫星,旨在为全球用户提供高速低成本的宽带接入,该卫星是星链星座扩容过程中的组成单元。

基本信息
目录编号:
67620
目录名称:
STARLINK-36607
国际标识:
2026-020D
轨道中心:
EARTH
卫星名称:
星链-36607
卫星全名:
星链-36607(STARLINK-36607)
卫星状态:
在轨 (已飞行115 天)
发射日期:
2026-01-30 UTC
国别 :
美国 (US)
星等 :
--
轨道信息
数据来源 国际轨道数据
星历时间: 2026-05-25T11:59:05+0800
5小时前
查看轨道信息
半长轴: 6861.155km
偏心率: 0.0001226
轨道倾角: 43.002°
近地点辐角 259.911°
升交点赤经 67.525°
平近点角 100.161°
近地点: 482.176km
远地点: 483.86km
周期: 94.266分钟
每日圈数: 15.275904
详细信息
固有亮度:
5
最大亮度:
2.5
卫星平台:
Starlink V1.0
覆盖范围:
全球
运营商:
太空探索技术公司
运营商所在国:
美国
制造商(研发单位):
太空探索技术公司
制造商所在国:
美国
使用方式:
暂无
卫星简介
Starlink 计划是 SpaceX 推出的全球卫星互联网项目,通过发射低轨道卫星,为全球尤其是偏远地区提供高速、低延迟的互联网服务。自 2019 年起,Starlink 已部署数千颗卫星,旨在缩小全球数字鸿沟,推动互联网普及。该项目还为军事、航空等行业提供通信支持,带来广泛经济效益。
2D轨道图
3D轨道图
轨道高度分析图
轨道倾角分析图
轨道综合分析图
查看轨道综合分析图